イェーガー彗星

P/1998 U3 ( Jager ) 2014

English version
Home page
Updated on April 12, 2009

---------------------------------------------------------------------

・ プロフィール

・ 軌道要素

Perturbed ephemeris below is based on elements from MPC 34421. 

 Epoch = 2456720.50000 TT   T = 2456731.06333 TT
 Peri. =  180.72769         a =     6.1380353 AU
 Node  =  303.42502 J2000.0 e =     0.6487068
 Incl. =   19.05609         q =     2.1562502 AU

・ 星図

・ 光度変化

        m1 = 1.7 + 5 logΔ + 25 log r(t + 33)

---------------------------------------------------------------------

軌道要素はMinor Planet & Comet Ephemeris Serviceで計算したものです。
星図はステラナビゲータ Ver.8 (アストロアーツ) で作成したものです。
光度グラフはComet for Windowsで作成したものです。

---------------------------------------------------------------------

Copyright(C) Seiichi Yoshida (comet@aerith.net). All rights reserved.